Observations for Trim Market St
| Time | AQI | Temp °C | Hum % | Pres Pa | CO μg/m³ | H₂S μg/m³ | NO μg/m³ | NO₂ μg/m³ | O₃ μg/m³ | SO₂ μg/m³ | PM1 μg/m³ | PM2.5 μg/m³ | PM10 μg/m³ |
|---|---|---|---|---|---|---|---|---|---|---|---|---|---|
| Tuesday 25 August 2026 | |||||||||||||
| 05:23 | 2 | 15.7 | 74 | 47,449 | 0.27 | 0 | 1.58 | 9.96 | 45.99 | 0 | 1.43 | 2.38 | 4.52 |
| 05:17 | 2 | 15.8 | 74 | 47,574 | 0.27 | 0 | 1.31 | 10.25 | 48.09 | 0 | 0 | 2.86 | 6.33 |
| 05:16 | 2 | 15.8 | 74 | 47,666 | 0.26 | 0 | 1.45 | 9.51 | 47.9 | 0 | 0.71 | 2.38 | 5.12 |
| 05:13 | 2 | 15.8 | 74 | 47,857 | 0.28 | 0 | 1.79 | 9.51 | 46.93 | 0 | 1.43 | 3.82 | 6.33 |
| 05:11 | 2 | 15.8 | 74 | 48,009 | 0.27 | 0 | 1.71 | 11.15 | 48.01 | 0 | 0.71 | 2.38 | 5.12 |
| 05:03 | 2 | 15.9 | 74 | 47,286 | 0.27 | 0 | 1.49 | 10.22 | 46.56 | 0 | 1.43 | 2.38 | 4.52 |
| 05:02 | 2 | 15.9 | 74 | 47,190 | 0.28 | 0 | 1.49 | 9.9 | 47.69 | 0 | 0.71 | 3.34 | 6.33 |
| 05:01 | 2 | 15.9 | 74 | 47,065 | 0.28 | 0 | 1.62 | 10.69 | 46.7 | 0 | 0.71 | 1.9 | 4.52 |
| 05:00 | 2 | 15.9 | 74 | 46,948 | 0.28 | 0 | 1.52 | 11.61 | 47.35 | 0 | 0.71 | 2.85 | 5.13 |
| 04:59 | 2 | 15.8 | 74 | 46,870 | 0.28 | 0 | 1.41 | 10.9 | 46.82 | 0 | 0.71 | 2.38 | 5.73 |
| 04:58 | 2 | 15.9 | 74 | 46,760 | 0.27 | 0 | 1.43 | 9.76 | 47.99 | 0 | 0.71 | 2.37 | 5.13 |
| 04:57 | 2 | 15.9 | 74 | 46,691 | 0.28 | 0 | 1.35 | 12 | 47.47 | 0 | 1.43 | 3.33 | 5.73 |
| 04:56 | 2 | 15.9 | 74 | 46,593 | 0.27 | 0 | 1.28 | 11.13 | 47.37 | 0 | 1.43 | 2.85 | 6.33 |
| 04:55 | 2 | 15.9 | 74 | 46,495 | 0.28 | 0 | 1.21 | 9.97 | 48.23 | 0 | 0 | 1.41 | 3.32 |
| 04:54 | 2 | 15.8 | 74 | 46,369 | 0.29 | 0 | 1.24 | 11.56 | 46.98 | 0 | 0.71 | 2.85 | 5.73 |
| 04:53 | 2 | 15.9 | 74 | 46,294 | 0.28 | 0 | 1.27 | 11.44 | 47.64 | 0 | 1.43 | 2.85 | 5.73 |
| 04:52 | 2 | 15.8 | 74 | 46,267 | 0.28 | 0 | 1.24 | 11.56 | 47.97 | 0 | 0 | 2.85 | 5.73 |
| 04:51 | 2 | 15.9 | 74 | 46,231 | 0.28 | 0 | 1.21 | 11.14 | 46.83 | 0 | 1.43 | 2.85 | 5.13 |
| 04:50 | 2 | 15.8 | 74 | 46,152 | 0.29 | 0 | 1.33 | 9.24 | 49.04 | 0 | 0.71 | 2.85 | 5.13 |
| 04:48 | 2 | 15.9 | 74 | 46,158 | 0.27 | 0 | 1.48 | 11.45 | 47.71 | 0 | 0.71 | 2.37 | 6.33 |